H1 CPF 2 NER 2025 8 13 9 225 01 glonass141 H2 1908801 9141 44850 2025 8 13 0 0 0 2025 8 16 23 45 0 900 1 1 0 0 0 1 H9 10 0 60900 0.00000 0 16312024.891 -15516185.101 -11952781.747 10 0 60900 900.00000 0 15345442.654 -14176838.800 -14599506.004 10 0 60900 1800.00000 0 14344404.243 -12492764.507 -16961956.661 10 0 60900 2700.00000 0 13367767.094 -10488863.525 -18994098.418 10 0 60900 3600.00000 0 12469951.726 -8202360.277 -20656337.277 10 0 60900 4500.00000 0 11698577.609 -5681493.044 -21916298.003 10 0 60900 5400.00000 0 11092404.925 -2983745.141 -22749458.539 10 0 60900 6300.00000 0 10679669.606 -173690.067 -23139628.865 10 0 60900 7200.00000 0 10476882.061 2679459.532 -23079265.046 10 0 60900 8100.00000 0 10488140.182 5504496.892 -22569612.585 10 0 60900 9000.00000 0 10704985.197 8230949.879 -21620676.618 10 0 60900 9900.00000 0 11106805.830 10791779.754 -20251019.989 10 0 60900 10800.00000 0 11661772.907 13125937.747 -18487393.564 10 0 60900 11700.00000 0 12328264.068 15180673.333 -16364206.498 10 0 60900 12600.00000 0 13056717.497 16913498.648 -13922847.275 10 0 60900 13500.00000 0 13791835.477 18293728.182 -11210869.308 10 0 60900 14400.00000 0 14475043.877 19303530.784 -8281057.483 10 0 60900 15300.00000 0 15047102.982 19938451.661 -5190394.447 10 0 60900 16200.00000 0 15450758.843 20207384.414 -1998947.330 10 0 60900 17100.00000 0 15633322.835 20131996.284 1231302.932 10 0 60900 18000.00000 0 15549070.382 19745632.715 4437666.423 10 0 60900 18900.00000 0 15161357.682 19091749.062 7557959.549 10 0 60900 19800.00000 0 14444367.354 18221936.900 10531707.163 10 0 60900 20700.00000 0 13384409.750 17193629.010 13301308.333 10 0 60900 21600.00000 0 11980725.391 16067580.193 15813143.637 10 0 60900 22500.00000 0 10245754.886 14905229.911 18018603.287 10 0 60900 23400.00000 0 8204864.858 13766057.240 19875017.107 10 0 60900 24300.00000 0 5895540.843 12705038.413 21346469.541 10 0 60900 25200.00000 0 3366079.968 11770312.639 22404485.069 10 0 60900 26100.00000 0 673836.684 11001152.887 23028571.910 10 0 60900 27000.00000 0 -2116907.027 10426325.601 23206614.402 10 0 60900 27900.00000 0 -4937360.312 10062907.088 22935107.082 10 0 60900 28800.00000 0 -7716832.490 9915605.577 22219226.163 10 0 60900 29700.00000 0 -10385426.168 9976617.144 21072736.789 10 0 60900 30600.00000 0 -12876704.506 10226021.735 19517737.250 10 0 60900 31500.00000 0 -15130223.399 10632703.268 17584244.050 10 0 60900 32400.00000 0 -17093824.519 11155756.091 15309624.616 10 0 60900 33300.00000 0 -18725594.568 11746319.671 12737887.169 10 0 60900 34200.00000 0 -19995409.341 12349765.338 9918840.137 10 0 60900 35100.00000 0 -20885998.096 12908143.749 6907136.150 10 0 60900 36000.00000 0 -21393483.304 13362790.292 3761218.176 10 0 60900 36900.00000 0 -21527372.643 13656978.432 542187.712 10 0 60900 37800.00000 0 -21310002.970 13738508.373 -2687383.172 10 0 60900 38700.00000 0 -20775459.215 13562120.570 -5864672.582 10 0 60900 39600.00000 0 -19968013.428 13091630.599 -8927837.937 10 0 60900 40500.00000 0 -18940149.806 12301693.330 -11817228.700 10 0 60900 41400.00000 0 -17750259.282 11179119.893 -14476558.017 10 0 60900 42300.00000 0 -16460101.526 9723689.797 -16854009.337 10 0 60900 43200.00000 0 -15132142.215 7948422.056 -18903255.416 10 0 60900 44100.00000 0 -13826878.711 5879292.133 -20584369.038 10 0 60900 45000.00000 0 -12600267.786 3554405.201 -21864607.021 10 0 60900 45900.00000 0 -11501364.498 1022659.270 -22719051.868 10 0 60900 46800.00000 0 -10570272.119 -1658046.579 -23131098.420 10 0 60900 47700.00000 0 -9836489.666 -4422984.393 -23092776.068 10 0 60900 48600.00000 0 -9317726.366 -7203059.441 -22604900.503 10 0 60900 49500.00000 0 -9019232.493 -9927459.622 -21677052.373 10 0 60900 50400.00000 0 -8933673.923 -12526381.630 -20327383.681 10 0 60900 51300.00000 0 -9041554.596 -14933720.383 -18582256.188 10 0 60900 52200.00000 0 -9312167.876 -17089609.769 -16475719.294 10 0 60900 53100.00000 0 -9705035.360 -18942709.175 -14048838.140 10 0 60900 54000.00000 0 -10171771.117 -20452141.078 -11348885.511 10 0 60900 54900.00000 0 -10658291.425 -21588999.780 -8428413.832 10 0 60900 55800.00000 0 -11107275.571 -22337369.490 -5344225.925 10 0 60900 56700.00000 0 -11460772.875 -22694810.702 -2156265.133 10 0 60900 57600.00000 0 -11662845.096 -22672296.219 1073553.088 10 0 60900 58500.00000 0 -11662132.202 -22293601.311 4282544.901 10 0 60900 59400.00000 0 -11414232.941 -21594175.332 7408473.459 10 0 60900 60300.00000 0 -10883799.784 -20619543.724 10390752.255 10 0 60900 61200.00000 0 -10046260.042 -19423308.742 13171613.215 10 0 60900 62100.00000 0 -8889090.876 -18064833.630 15697217.369 10 0 60900 63000.00000 0 -7412594.661 -16606707.781 17918687.316 10 0 60900 63900.00000 0 -5630142.064 -15112099.036 19793042.418 10 0 60900 64800.00000 0 -3567872.252 -13642103.490 21284019.782 10 0 60900 65700.00000 0 -1263862.006 -12253202.800 22362766.337 10 0 60900 66600.00000 0 1233202.731 -10994934.225 23008389.717 10 0 60900 67500.00000 0 3865799.021 -9907869.548 23208358.245 10 0 60900 68400.00000 0 6569710.899 -9021986.159 22958742.895 10 0 60900 69300.00000 0 9276458.003 -8355497.397 22264296.800 10 0 60900 70200.00000 0 11915910.016 -7914190.384 21138370.554 10 0 60900 71100.00000 0 14418980.297 -7691298.746 19602664.319 10 0 60900 72000.00000 0 16720288.419 -7667915.633 17686820.540 10 0 60900 72900.00000 0 18760682.271 -7813930.152 15427863.862 10 0 60900 73800.00000 0 20489515.581 -8089448.520 12869497.673 10 0 60900 74700.00000 0 21866586.315 -8446640.946 10061269.491 10 0 60900 75600.00000 0 22863654.951 -8831937.110 7057620.148 10 0 60900 76500.00000 0 23465478.720 -9188478.122 3916834.180 10 0 60900 77400.00000 0 23670317.777 -9458721.514 699911.269 10 0 60900 78300.00000 0 23489891.284 -9587088.815 -2530619.543 10 0 60900 79200.00000 0 22948784.507 -9522542.932 -5711919.601 10 0 60900 80100.00000 0 22083331.263 -9220985.016 -8782069.948 10 0 60900 81000.00000 0 20940018.467 -8647367.781 -11681285.434 10 0 60900 81900.00000 0 19573479.931 -7777434.013 -14353088.921 10 0 60900 82800.00000 0 18044164.263 -6599004.800 -16745421.582 10 0 60900 83700.00000 0 16415775.623 -5112761.080 -18811666.671 10 0 60900 84600.00000 0 14752595.825 -3332483.722 -20511565.919 10 0 60900 85500.00000 0 13116801.254 -1284740.377 -21812010.070 10 0 60901 0.00000 0 11565888.294 991968.851 -22687687.668 10 0 60901 900.00000 0 10150315.158 3448573.356 -23121579.735 10 0 60901 1800.00000 0 8911461.501 6027242.148 -23105289.646 10 0 60901 2700.00000 0 7879988.591 8663570.884 -22639203.590 10 0 60901 3600.00000 0 7074670.510 11289051.656 -21732477.560 10 0 60901 4500.00000 0 6501743.737 13833723.623 -20402852.089 10 0 60901 5400.00000 0 6154801.386 16228893.697 -18676298.716 10 0 60901 6300.00000 0 6015235.079 18409813.826 -16586505.517 10 0 60901 7200.00000 0 6053204.252 20318203.276 -14174212.269 10 0 60901 8100.00000 0 6229090.361 21904510.983 -11486408.698 10 0 60901 9000.00000 0 6495373.073 23129824.091 -8575411.962 10 0 60901 9900.00000 0 6798847.734 23967343.745 -5497841.948 10 0 60901 10800.00000 0 7083089.213 24403367.549 -2313514.866 10 0 60901 11700.00000 0 7291056.991 24437738.943 915722.782 10 0 60901 12600.00000 0 7367730.687 24083746.174 4127196.726 10 0 60901 13500.00000 0 7262664.269 23367476.669 7258620.258 10 0 60901 14400.00000 0 6932350.876 22326655.326 10249298.706 10 0 60901 15300.00000 0 6342298.538 21009016.725 13041299.784 10 0 60901 16200.00000 0 5468729.424 19470280.356 15580567.580 10 0 60901 17100.00000 0 4299831.223 17771814.214 17817959.329 10 0 60901 18000.00000 0 2836508.085 15978084.596 19710185.815 10 0 60901 18900.00000 0 1092599.377 14153998.346 21220638.320 10 0 60901 19800.00000 0 -905443.484 12362247.759 22320087.351 10 0 60901 20700.00000 0 -3119409.574 10660767.894 22987240.678 10 0 60901 21600.00000 0 -5500676.141 9100411.056 23209150.902 10 0 60901 22500.00000 0 -7991996.969 7722934.075 22981465.267 10 0 60901 23400.00000 0 -10529658.916 6559381.091 22308513.172 10 0 60901 24300.00000 0 -13045918.969 5628928.262 21203229.491 10 0 60901 25200.00000 0 -15471622.510 4938237.928 19686914.587 10 0 60901 26100.00000 0 -17738895.667 4481348.848 17788834.676 10 0 60901 27000.00000 0 -19783801.203 4240107.114 15545669.029 10 0 60901 27900.00000 0 -21548848.325 4185119.915 13000813.252 10 0 60901 28800.00000 0 -22985252.238 4277192.588 10203550.773 10 0 60901 29700.00000 0 -24054849.077 4469188.942 7208107.308 10 0 60901 30600.00000 0 -24731585.690 4708236.894 4072605.632 10 0 60901 31500.00000 0 -25002521.029 4938186.406 857940.359 10 0 60901 32400.00000 0 -24868296.192 5102215.691 -2373405.616 10 0 60901 33300.00000 0 -24343052.294 5145474.778 -5558579.810 10 0 60901 34200.00000 0 -23453798.718 5017653.533 -8635589.625 10 0 60901 35100.00000 0 -22239257.606 4675363.972 -11544517.813 10 0 60901 36000.00000 0 -20748232.819 4084234.345 -14228699.213 10 0 60901 36900.00000 0 -19037571.969 3220624.492 -16635834.705 10 0 60901 37800.00000 0 -17169807.509 2072888.048 -18719019.661 10 0 60901 38700.00000 0 -15210576.562 642126.347 -20437665.988 10 0 60901 39600.00000 0 -13225928.553 -1057599.488 -21758299.121 10 0 60901 40500.00000 0 -11279634.311 -2999608.613 -22655214.048 10 0 60901 41400.00000 0 -9430610.074 -5145479.596 -23110977.456 10 0 60901 42300.00000 0 -7730564.677 -7446432.563 -23116766.215 10 0 60901 43200.00000 0 -6221968.507 -9845156.996 -22672535.888 10 0 60901 44100.00000 0 -4936428.886 -12278009.016 -21787016.290 10 0 60901 45000.00000 0 -3893539.165 -14677486.321 -20477534.609 10 0 60901 45900.00000 0 -3100248.564 -16974877.367 -18769669.992 10 0 60901 46800.00000 0 -2550777.649 -19102974.023 -16696746.800 10 0 60901 47700.00000 0 -2227081.244 -20998734.334 -14299176.905 10 0 60901 48600.00000 0 -2099837.371 -22605784.205 -11623664.357 10 0 60901 49500.00000 0 -2129918.658 -23876653.700 -8722288.431 10 0 60901 50400.00000 0 -2270282.354 -24774654.891 -5651483.529 10 0 60901 51300.00000 0 -2468197.540 -25275323.419 -2470936.294 10 0 60901 52200.00000 0 -2667714.121 -25367364.401 757578.021 10 0 60901 53100.00000 0 -2812268.226 -25053064.180 3971396.860 10 0 60901 54000.00000 0 -2847313.209 -24348151.997 7108185.663 10 0 60901 54900.00000 0 -2722864.760 -23281118.606 10107143.471 10 0 60901 55800.00000 0 -2395852.518 -21892021.566 12910175.528 10 0 60901 56700.00000 0 -1832179.140 -20230828.134 15463010.587 10 0 60901 57600.00000 0 -1008400.229 -18355365.635 17716241.961 10 0 60901 58500.00000 0 87045.399 -16328965.187 19626273.099 10 0 60901 59400.00000 0 1453106.808 -14217896.857 21156150.482 10 0 60901 60300.00000 0 3075924.294 -12088702.511 22276268.943 10 0 60901 61200.00000 0 4929173.884 -10005536.504 22964936.882 10 0 60901 62100.00000 0 6974939.684 -8027623.590 23208791.388 10 0 60901 63000.00000 0 9165079.145 -6206938.434 23003055.926 10 0 60901 63900.00000 0 11443026.097 -4586201.900 22351635.859 10 0 60901 64800.00000 0 13745958.406 -3197276.240 21267049.808 10 0 60901 65700.00000 0 16007242.026 -2060025.022 19770197.589 10 0 60901 66600.00000 0 18159051.515 -1181684.649 17889968.238 10 0 60901 67500.00000 0 20135059.415 -556773.345 15662694.481 10 0 60901 68400.00000 0 21873083.582 -167541.365 13131462.749 10 0 60901 69300.00000 0 23317582.532 15056.276 10345290.730 10 0 60901 70200.00000 0 24421894.699 29905.119 7358187.111 10 0 60901 71100.00000 0 25150127.447 -76144.416 4228110.721 10 0 60901 72000.00000 0 25478615.855 -250494.762 1015848.673 10 0 60901 72900.00000 0 25396888.933 -437267.183 -2216164.918 10 0 60901 73800.00000 0 24908101.431 -579911.284 -5405066.494 10 0 60901 74700.00000 0 24028911.830 -623846.740 -8488792.600 10 0 60901 75600.00000 0 22788810.561 -519024.218 -11407296.606 10 0 60901 76500.00000 0 21228925.918 -222295.542 -14103727.903 10 0 60901 77400.00000 0 19400357.401 300508.949 -16525549.448 10 0 60901 78300.00000 0 17362106.429 1072885.510 -18625570.887 10 0 60901 79200.00000 0 15178691.529 2106418.007 -20362876.220 10 0 60901 80100.00000 0 12917548.496 3400048.788 -21703627.265 10 0 60901 81000.00000 0 10646325.060 4939891.615 -22621726.851 10 0 60901 81900.00000 0 8430183.840 6699595.743 -23099328.667 10 0 60901 82800.00000 0 6329226.869 8641246.739 -23127183.863 10 0 60901 83700.00000 0 4396149.453 10716766.865 -22704817.902 10 0 60901 84600.00000 0 2674221.226 12869756.654 -21840534.536 10 0 60901 85500.00000 0 1195678.145 15037700.660 -20551247.277 10 0 60902 0.00000 0 -19408.288 17154444.802 -18862142.253 10 0 60902 900.00000 0 -963739.322 19152842.607 -16806178.523 10 0 60902 1800.00000 0 -1642849.502 20967456.637 -14423438.431 10 0 60902 2700.00000 0 -2074621.093 22537205.676 -11760338.151 10 0 60902 3600.00000 0 -2288273.239 23807844.047 -8868716.482 10 0 60902 4500.00000 0 -2322871.185 24734170.518 -5804819.389 10 0 60902 5400.00000 0 -2225420.223 25281874.483 -2628200.745 10 0 60902 6300.00000 0 -2048626.489 25428942.653 599438.835 10 0 60902 7200.00000 0 -1848420.542 25166568.099 3815451.971 10 0 60902 8100.00000 0 -1681349.319 24499524.524 6957459.686 10 0 60902 9000.00000 0 -1601947.277 23445991.055 9964558.051 10 0 60902 9900.00000 0 -1660198.003 22036835.899 12778492.957 10 0 60902 10800.00000 0 -1899193.369 20314389.625 15344780.672 10 0 60902 11700.00000 0 -2353088.723 18330759.876 17613753.137 10 0 60902 12600.00000 0 -3045439.929 16145758.126 19541508.675 10 0 60902 13500.00000 0 -3987991.972 13824524.698 21090750.808 10 0 60902 14400.00000 0 -5179970.014 11434950.362 22231500.172 10 0 60902 15300.00000 0 -6607902.916 9045000.854 22941666.838 10 0 60902 16200.00000 0 -8245987.373 6720054.235 23207472.983 10 0 60902 17100.00000 0 -10056978.540 4520360.264 23023718.396 10 0 60902 18000.00000 0 -11993571.484 2498725.853 22393883.974 10 0 60902 18900.00000 0 -14000217.564 698521.307 21330071.100 10 0 60902 19800.00000 0 -16015301.924 -847910.975 19852777.484 10 0 60902 20700.00000 0 -17973593.137 -2120380.052 17990512.872 10 0 60902 21600.00000 0 -19808864.450 -3111456.044 15779260.821 10 0 60902 22500.00000 0 -21456578.540 -3826540.677 13261795.524 10 0 60902 23400.00000 0 -22856524.370 -4283395.801 10486865.538 10 0 60902 24300.00000 0 -23955296.121 -4511149.601 7508258.907 10 0 60902 25200.00000 0 -24708510.090 -4548822.008 4383766.798 10 0 60902 26100.00000 0 -25082665.763 -4443431.328 1174065.123 10 0 60902 27000.00000 0 -25056571.781 -4247761.997 -2058464.375 10 0 60902 27900.00000 0 -24622275.416 -4017888.121 -5250950.490 10 0 60902 28800.00000 0 -23785454.994 -3810558.205 -8341262.104 10 0 60902 29700.00000 0 -22565257.304 -3680552.752 -11269226.133 10 0 60902 30600.00000 0 -20993585.628 -3678127.937 -13977809.139 10 0 60902 31500.00000 0 -19113867.432 -3846655.054 -16414238.422 10 0 60902 32400.00000 0 -16979352.959 -4220557.298 -18531039.734 10 0 60902 33300.00000 0 -14651015.967 -4823632.750 -20286970.514 10 0 60902 34200.00000 0 -12195144.744 -5667835.978 -21647829.745 10 0 60902 35100.00000 0 -9680724.637 -6752571.048 -22587128.280 10 0 60902 36000.00000 0 -7176721.971 -8064526.885 -23086606.395 10 0 60902 36900.00000 0 -4749383.246 -9578062.783 -23136588.519 10 0 60902 37800.00000 0 -2459662.576 -11256128.456 -22736168.489 10 0 60902 38700.00000 0 -360884.628 -13051680.325 -21893222.026 10 0 60902 39600.00000 0 1503259.821 -14909534.675 -20624246.627 10 0 60902 40500.00000 0 3100302.916 -16768579.871 -18954032.441 10 0 60902 41400.00000 0 4410108.232 -18564254.655 -16915171.006 10 0 60902 42300.00000 0 5425454.036 -20231188.327 -14547411.908 10 0 60902 43200.00000 0 6152068.845 -21705891.838 -11896880.416 10 0 60902 44100.00000 0 6608119.933 -22929386.750 -9015171.811 10 0 60902 45000.00000 0 6823178.502 -23849661.692 -5958340.649 10 0 60902 45900.00000 0 6836707.215 -24423853.371 -2785805.159 10 0 60902 46800.00000 0 6696135.804 -24620060.909 440811.388 10 0 60902 47700.00000 0 6454607.580 -24418717.845 3658879.301 10 0 60902 48600.00000 0 6168493.288 -23813464.914 6805977.469 10 0 60902 49500.00000 0 5894778.161 -22811487.701 9821101.029 10 0 60902 50400.00000 0 5688432.957 -21433305.789 12645838.290 10 0 60902 51300.00000 0 5599880.054 -19712022.842 15225494.520 10 0 60902 52200.00000 0 5672661.209 -17692069.406 17510141.479 10 0 60902 53100.00000 0 5941404.900 -15427491.063 19455573.235 10 0 60902 54000.00000 0 6430178.339 -12979853.107 21024150.904 10 0 60902 54900.00000 0 7151293.087 -10415848.324 22185521.133 10 0 60902 55800.00000 0 8104614.344 -7804706.435 22917195.558 10 0 60902 56700.00000 0 9277403.131 -5215511.494 23204981.029 10 0 60902 57600.00000 0 10644698.667 -2714537.084 23043252.964 10 0 60902 58500.00000 0 12170226.063 -362708.311 22435066.860 10 0 60902 59400.00000 0 13807792.821 1786705.644 21392105.727 10 0 60902 60300.00000 0 15503117.527 3690074.036 19934463.858 10 0 60902 61200.00000 0 17196016.077 5314980.852 18090270.256 10 0 60902 62100.00000 0 18822855.754 6641330.131 15895157.727 10 0 60902 63000.00000 0 20319175.975 7661934.736 13391586.516 10 0 60902 63900.00000 0 21622366.976 8382564.169 10628034.195 10 0 60902 64800.00000 0 22674294.707 8821449.404 7658066.171 10 0 60902 65700.00000 0 23423761.748 9008265.404 4539303.816 10 0 60902 66600.00000 0 23828700.263 8982633.933 1332309.571 10 0 60902 67500.00000 0 23858003.708 8792209.743 -1900589.551 10 0 60902 68400.00000 0 23492918.792 8490431.105 -5096517.086 10 0 60902 69300.00000 0 22727937.430 8134030.222 -8193276.607 10 0 60902 70200.00000 0 21571149.467 7780409.621 -11130570.829 10 0 60902 71100.00000 0 20044039.764 7484996.627 -13851185.566 10 0 60902 72000.00000 0 18180736.849 7298689.204 -16302114.336 10 0 60902 72900.00000 0 16026743.748 7265502.688 -18435600.665 10 0 60902 73800.00000 0 13637203.640 7420518.393 -20210076.896 10 0 60902 74700.00000 0 11074772.788 7788222.226 -21590980.476 10 0 60902 75600.00000 0 8407189.840 8381304.670 -22551431.418 10 0 60902 76500.00000 0 5704643.292 9199973.802 -23072757.552 10 0 60902 77400.00000 0 3037047.377 10231811.029 -23144857.367 10 0 60902 78300.00000 0 471340.225 11452176.103 -22766393.598 10 0 60902 79200.00000 0 -1931083.070 12825144.609 -21944814.140 10 0 60902 80100.00000 0 -4116695.664 14304938.469 -20696200.307 10 0 60902 81000.00000 0 -6041826.198 15837789.160 -19044945.847 10 0 60902 81900.00000 0 -7674226.171 17364155.053 -17023273.438 10 0 60902 82800.00000 0 -8994153.395 18821199.284 -14670598.575 10 0 60902 83700.00000 0 -9994928.020 20145423.669 -12032753.745 10 0 60902 84600.00000 0 -10682939.882 21275347.594 -9161088.479 10 0 60902 85500.00000 0 -11077109.037 22154119.040 -6111463.378 10 0 60903 0.00000 0 -11207824.399 22731947.823 -2943158.528 10 0 60903 900.00000 0 -11115407.274 22968259.062 282283.682 10 0 60903 1800.00000 0 -10848166.290 22833475.896 3502254.052 10 0 60903 2700.00000 0 -10460127.545 22310357.947 6654292.477 10 0 60903 3600.00000 0 -10008536.637 21394838.978 9677296.276 10 0 60903 4500.00000 0 -9551238.820 20096329.479 12512699.221 10 0 60903 5400.00000 0 -9144048.040 18437471.888 15105598.496 10 0 60903 6300.00000 0 -8838215.654 16453358.995 17405808.399 10 0 60903 7200.00000 0 -8678105.071 14190248.197 19368821.233 10 0 60903 8100.00000 0 -8699169.580 11703824.990 20956657.903 10 0 60903 9000.00000 0 -8926317.791 9057087.331 22138592.932 10 0 60903 9900.00000 0 -9372734.865 6317937.863 22891741.000 10 0 60903 10800.00000 0 -10039208.779 3556582.695 23201494.668 10 0 60903 11700.00000 0 -10913990.044 842843.064 23061805.532 10 0 60903 12600.00000 0 -11973191.360 -1756510.249 22475303.710 10 0 60903 13500.00000 0 -13181711.478 -4180290.918 21453253.275 10 0 60903 14400.00000 0 -14494645.949 -6375195.932 20015343.966 10 0 60903 15300.00000 0 -15859127.281 -8297775.126 18189322.315 10 0 60903 16200.00000 0 -17216519.047 -9915990.532 16010468.094 10 0 60903 17100.00000 0 -18504873.474 -11210301.259 13520924.833 10 0 60903 18000.00000 0 -19661550.631 -12174228.942 10768895.946 10 0 60903 18900.00000 0 -20625889.969 -12814380.145 7807720.723 10 0 60903 19800.00000 0 -21341822.143 -13149924.674 4694847.060 10 0 60903 20700.00000 0 -21760310.854 -13211551.472 1490720.168 10 0 60903 21600.00000 0 -21841520.985 -13039945.905 -1742391.435 10 0 60903 22500.00000 0 -21556620.325 -12683852.672 -4941609.708 10 0 60903 23400.00000 0 -20889137.267 -12197806.365 -8044676.448 10 0 60903 24300.00000 0 -19835815.430 -11639626.187 -10991173.484 10 0 60903 25200.00000 0 -18406927.376 -11067781.588 -13723708.938 10 0 60903 26100.00000 0 -16626032.565 -10538741.383 -16189045.257 10 0 60903 27000.00000 0 -14529188.340 -10104419.683 -18339146.033 10 0 60903 27900.00000 0 -12163646.032 -9809827.950 -20132120.302 10 0 60903 28800.00000 0 -9586086.219 -9691033.636 -21533045.174 10 0 60903 29700.00000 0 -6860466.695 -9773512.674 -22514650.391 10 0 60903 30600.00000 0 -4055573.040 -10070966.231 -23057851.254 10 0 60903 31500.00000 0 -1242374.190 -10584652.187 -23152119.582 10 0 60903 32400.00000 0 1508706.574 -11303259.817 -22795685.712 10 0 60903 33300.00000 0 4130491.422 -12203333.009 -21995567.919 10 0 60903 34200.00000 0 6561606.197 -13250223.984 -20767429.132 10 0 60903 35100.00000 0 8748790.883 -14399537.004 -19135264.167 10 0 60903 36000.00000 0 10648866.786 -15599000.807 -17130924.055 10 0 60903 36900.00000 0 12230279.464 -16790690.387 -14793487.200 10 0 60903 37800.00000 0 13474154.450 -17913503.976 -12168490.138 10 0 60903 38700.00000 0 14374823.451 -18905790.439 -9307033.354 10 0 60903 39600.00000 0 14939800.952 -19708015.963 -6264780.121 10 0 60903 40500.00000 0 15189214.412 -20265357.424 -3100868.417 10 0 60903 41400.00000 0 15154714.118 -20530113.066 123242.436 10 0 60903 42300.00000 0 14877910.566 -20463829.005 3344967.473 10 0 60903 43200.00000 0 14408406.930 -20039052.215 6501810.540 10 0 60903 44100.00000 0 13801510.908 -19240636.589 9532573.777 10 0 60903 45000.00000 0 13115723.333 -18066547.498 12378538.679 10 0 60903 45900.00000 0 12410109.888 -16528131.421 14984596.177 10 0 60903 46800.00000 0 11741666.674 -14649839.492 17300304.493 10 0 60903 47700.00000 0 11162790.212 -12468416.499 19280855.088 10 0 60903 48600.00000 0 10718957.639 -10031588.840 20887929.125 10 0 60903 49500.00000 0 10446713.820 -7396305.428 22090429.032 10 0 60903 50400.00000 0 10372049.108 -4626603.697 22865072.150 10 0 60903 51300.00000 0 10509235.164 -1791188.036 23196835.988 10 0 60903 52200.00000 0 10860167.320 1039180.518 23079247.221 10 0 60903 53100.00000 0 11414241.081 3794376.789 22514509.198 10 0 60903 54000.00000 0 12148768.403 6407576.333 21513465.427 10 0 60903 54900.00000 0 13029917.179 8817783.868 20095399.269 10 0 60903 55800.00000 0 14014135.739 10972121.740 18287672.805 10 0 60903 56700.00000 0 15050004.012 12827784.515 16125210.688 10 0 60903 57600.00000 0 16080435.029 14353579.125 13649837.535 10 0 60903 58500.00000 0 17045135.510 15530986.754 10909480.319 10 0 60903 59400.00000 0 17883222.957 16354702.165 7957249.870 10 0 60903 60300.00000 0 18535889.502 16832627.749 4850418.200 10 0 60903 61200.00000 0 18949000.154 16985322.215 1649310.850 10 0 60903 62100.00000 0 19075515.214 16844926.833 -1583864.577 10 0 60903 63000.00000 0 18877633.464 16453614.250 -4786230.809 10 0 60903 63900.00000 0 18328564.113 15861625.354 -7895470.076 10 0 60903 64800.00000 0 17413850.869 15124977.371 -10851045.347 10 0 60903 65700.00000 0 16132190.321 14302940.632 -13595388.823 10 0 60903 66600.00000 0 14495708.271 13455391.503 -16075033.403 10 0 60903 67500.00000 0 12529680.635 12640154.399 -18241664.020 10 0 60903 68400.00000 0 10271709.240 11910446.297 -20053067.451 10 0 60903 69300.00000 0 7770386.049 11312532.785 -21473961.352 10 0 60903 70200.00000 0 5083501.068 10883695.507 -22476685.922 10 0 60903 71100.00000 0 2275868.511 10650597.502 -23041744.524 10 0 60903 72000.00000 0 -583138.090 10628115.755 -23158182.752 10 0 60903 72900.00000 0 -3422238.997 10818690.322 -22823798.783 10 0 60903 73800.00000 0 -6170978.984 11212217.251 -22045181.257 10 0 60903 74700.00000 0 -8762421.916 11786489.400 -20837574.379 10 0 60903 75600.00000 0 -11135697.190 12508165.956 -19224573.336 10 0 60903 76500.00000 0 -13238292.460 13334229.029 -17237656.440 10 0 60903 77400.00000 0 -15027997.825 14213865.144 -14915563.578 10 0 60903 78300.00000 0 -16474421.523 15090691.470 -12303533.598 10 0 60903 79200.00000 0 -17560015.282 15905232.157 -9452415.927 10 0 60903 80100.00000 0 -18280568.154 16597539.656 -6417674.299 10 0 60903 81000.00000 0 -18645150.084 17109849.925 -3258302.491 10 0 60903 81900.00000 0 -18675509.644 17389159.153 -35673.666 10 0 60903 82800.00000 0 -18404953.162 17389613.141 3187653.781 10 0 60903 83700.00000 0 -17876754.288 17074608.612 6349150.351 10 0 60903 84600.00000 0 -17142162.389 16418518.046 9387525.769 10 0 60903 85500.00000 0 -16258094.829 15407965.654 12243912.037 99